#timestamp,LO_Frequency,Hit 
1502733615.7,286047003.5,N
1502733635.5,286047001.8,N
1502733655.3,286047000.2,N
1502733675.2,286046998.5,N
1502733695.9,286046998.8,N
1502733715.7,286047002.8,N
1502733735.5,286047002.3,N
1502733755.4,286047006.0,N
1502733775.2,286047004.1,N
1502733795.0,286047004.2,N
1502733795.9,286047004.2,N
1502733815.8,286047005.5,N
1502733835.6,286047003.5,N
1502733855.4,286047001.5,N
1502733875.3,286047002.7,N
1502733895.1,286047000.0,N
1502733896.0,286047000.0,N
1502733915.8,286047000.5,N
1502733935.7,286047000.3,N
1502733955.5,286047000.6,N
1502733975.3,286046998.6,N
1502733995.1,286047002.0,N
1502734015.9,286047002.7,N
1502734035.7,286047003.4,N
1502734055.5,286047001.3,N
1502734075.4,286047001.8,N
1502734095.2,286047006.0,N
1502734115.0,286047003.9,N
1502734115.9,286047003.9,N
1502734135.8,286047002.6,N
1502734155.6,286047003.7,N
1502734175.4,286047007.5,N
1502734195.3,286047003.4,N
1502734215.1,286047001.4,N
1502734216.0,286047001.4,N
1502734235.8,286047002.0,N
1502734255.6,286047001.4,N
1502734275.5,286047001.7,N
1502734295.3,286047004.8,N
1502734315.1,286047007.6,Y
1502734335.9,286047000.1,N
1502734355.7,286047000.2,N
1502734375.6,286047002.1,N
1502734395.4,286047004.9,N
1502734415.2,286047005.4,N
1502734435.1,286047004.4,N
1502734436.0,286047004.4,N
1502734455.8,286047001.0,N
1502734475.6,286047000.7,N
1502734495.5,286046999.7,N
1502734515.3,286046999.8,N
1502734535.1,286047000.0,N
1502734555.9,286047002.3,N
1502734575.7,286047004.3,N
1502734595.5,286047005.8,N
1502734615.3,286047004.1,N
1502734635.2,286047004.6,N
1502734655.0,286047007.4,Y
1502734655.9,286047007.4,Y
1502734675.8,286047002.0,N
1502734695.6,286047004.3,N
1502734715.4,286047000.5,N
1502734735.2,286046998.9,N
1502734755.1,286047000.7,N
1502734756.0,286047000.7,N
1502734775.8,286046998.2,N
1502734795.6,286047001.1,N
1502734815.5,286047000.3,N
1502734835.3,286046997.0,N
1502734855.1,286046998.0,N
1502734875.9,286046995.0,N
1502734895.7,286046996.8,N
1502734915.5,286046999.9,N
1502734935.4,286047001.6,N
1502734955.2,286047000.0,N
1502734975.0,286047000.7,N
1502734975.9,286047000.7,N
1502734995.8,286046998.1,N
1502735015.6,286047002.6,N
1502735035.4,286047000.4,N
1502735055.2,286047001.9,N
1502735075.1,286047004.1,N
1502735076.0,286047004.1,N
1502735095.8,286047003.1,N
1502735115.6,286047003.3,N
1502735135.5,286047003.8,N
1502735155.3,286047001.7,N
1502735175.1,286047005.7,N
1502735195.9,286047003.9,N
1502735215.7,286047004.1,N
1502735235.5,286047003.0,N
1502735255.4,286047007.5,N
1502735275.2,286047006.8,N
1502735295.0,286047009.2,Y
1502735295.9,286047009.2,Y
1502735315.8,286046998.4,N
1502735335.6,286046996.9,N
1502735355.4,286046997.2,N
1502735375.3,286046997.5,N
1502735395.1,286047001.0,N
1502735396.0,286047001.0,N
1502735415.8,286047002.0,N
1502735435.6,286047004.2,N
1502735455.5,286047003.9,N
1502735475.3,286047001.5,N
1502735495.1,286047003.4,N
1502735515.9,286047003.0,N
1502735535.7,286047000.4,N
1502735555.5,286046998.8,N
1502735575.4,286046996.6,N
1502735595.2,286046996.6,N
1502735615.0,286047000.0,N
1502735615.9,286047000.0,N
1502735635.8,286047001.3,N
1502735655.6,286047000.9,N
1502735675.4,286047000.8,N
1502735695.3,286046999.2,N
1502735715.1,286046999.0,N
1502735716.0,286046999.0,N
1502735735.8,286046996.5,N
1502735755.6,286046998.8,N
1502735775.5,286046998.9,N
1502735795.3,286047000.6,N
1502735815.1,286047003.7,N
1502735835.9,286047002.1,N
1502735855.7,286047004.1,N
1502735875.5,286047003.4,N
1502735895.4,286047003.7,N
1502735915.2,286046999.9,N
1502735935.0,286047001.6,N
1502735935.9,286047001.6,N
1502735955.8,286047003.2,N
1502735975.6,286047003.1,N
1502735995.4,286047003.3,N
1502736015.2,286047005.5,N
1502736035.1,286047006.4,N
1502736036.0,286047006.4,N
1502736055.8,286047005.0,N
1502736075.6,286047006.8,N
1502736095.5,286047006.3,N
1502736115.3,286047008.8,N
1502736135.1,286047005.8,N
1502736155.9,286047006.0,N
1502736175.7,286047007.5,N
1502736195.5,286047007.5,N
1502736215.4,286047008.7,N
1502736235.2,286047006.1,N
1502736255.0,286047007.7,N
1502736255.9,286047007.7,N
1502736275.7,286047008.6,N
1502736295.6,286047010.7,Y
1502736315.4,286047002.9,N
1502736335.2,286047007.3,N
1502736355.1,286047008.9,N
1502736356.0,286047008.9,N
1502736375.8,286047005.2,N
1502736395.6,286047006.9,N
1502736415.5,286047006.2,N
1502736435.3,286047005.1,N
1502736455.1,286047004.8,N
1502736475.9,286047008.3,N
1502736495.7,286047010.3,N
1502736515.5,286047008.9,N
1502736535.4,286047010.2,N
1502736555.2,286047009.6,N
1502736575.0,286047009.9,N
1502736575.9,286047009.9,N
1502736595.8,286047006.1,N
1502736615.6,286047006.5,N
1502736635.4,286047006.3,N
1502736655.2,286047008.1,N
1502736675.1,286047008.0,N
1502736676.0,286047008.0,N
1502736695.8,286047010.8,N
1502736715.6,286047012.4,Y
1502736735.5,286047005.0,N
1502736755.3,286047001.9,N
1502736775.1,286047002.3,N
1502736795.9,286047000.2,N
1502736815.7,286047000.4,N
1502736835.5,286047001.3,N
1502736855.4,286047001.4,N
1502736875.2,286047005.3,N
1502736895.0,286047007.6,N
1502736895.9,286047007.6,N
1502736915.7,286047009.1,N
1502736935.6,286047007.6,N
1502736955.4,286047007.5,N
1502736975.2,286047006.7,N
1502736995.1,286047007.8,N
1502736996.0,286047007.8,N
1502737015.8,286047009.6,N
1502737035.6,286047006.2,N
1502737055.5,286047008.3,N
1502737075.3,286047010.3,N
1502737095.1,286047009.8,N
1502737115.9,286047009.5,N
1502737135.7,286047009.7,N
1502737155.5,286047011.6,N
1502737175.4,286047012.4,Y
1502737195.2,286047006.6,N
